LRTC Weather Reports


time (UTC)temp
C
wind
direction
speed
KPH
gust
KPH
rain 1hr
cm
rain 24hr
cm
rain mn
cm
humidity
%
barometer
mb
20260508071845 15 130 17.7 0.0 0.00 0.00 0.00 82 1017.0
20260508070345 15 130 17.7 0.0 0.00 0.00 0.00 82 1017.0
20260508064845 15 150 16.1 0.0 0.00 0.00 0.00 82 1017.0
20260508063345 15 150 16.1 0.0 0.00 0.00 0.00 82 1017.0
20260508061841 13 150 17.7 0.0 0.00 0.00 0.00 82 1017.0
20260508060345 13 150 17.7 0.0 0.00 0.00 0.00 82 1017.0
20260508054842 12 140 14.5 0.0 0.00 0.00 0.00 88 1017.0
20260508053344 12 140 14.5 0.0 0.00 0.00 0.00 88 1017.0
20260508051845 12 150 14.5 0.0 0.00 0.00 0.00 94 1017.0
20260508050345 12 150 14.5 0.0 0.00 0.00 0.00 94 1017.0
20260508044845 12 150 16.1 0.0 0.00 0.00 0.00 88 1017.0
20260508043345 12 150 16.1 0.0 0.00 0.00 0.00 88 1017.0
20260508040346 12 170 12.9 0.0 0.00 0.00 0.00 88 1017.0
20260508033345 11 180 11.3 0.0 0.00 0.00 0.00 94 1017.0
20260508030345 11 170 9.7 0.0 0.00 0.00 0.00 94 1017.0
20260508024845 11 140 11.3 0.0 0.00 0.00 0.00 94 1016.0
20260508023345 11 140 11.3 0.0 0.00 0.00 0.00 94 1016.0
20260508021846 11 150 12.9 0.0 0.00 0.00 0.00 94 1016.0
20260508020345 11 150 12.9 0.0 0.00 0.00 0.00 94 1016.0
20260508014841 11 140 12.9 0.0 0.00 0.00 0.00 94 1016.0
20260508013345 11 140 12.9 0.0 0.00 0.00 0.00 94 1016.0
20260508011845 11 140 11.3 0.0 0.00 0.00 0.00 94 1016.0
20260508010344 11 140 11.3 0.0 0.00 0.00 0.00 94 1016.0
20260508004845 11 130 12.9 0.0 0.00 0.00 0.00 94 1016.0
20260508003344 11 130 12.9 0.0 0.00 0.00 0.00 94 1016.0
20260508001841 11 140 11.3 0.0 0.00 0.00 0.00 94 1017.0
20260508000344 11 140 11.3 0.0 0.00 0.00 0.00 94 1017.0
20260507234842 11 150 16.1 0.0 0.00 0.00 0.00 94 1017.0
20260507233344 11 150 16.1 0.0 0.00 0.00 0.00 94 1017.0
20260507230344 11 160 14.5 0.0 0.00 0.00 0.00 94 1017.0
20260507224844 12 150 12.9 0.0 0.00 0.00 0.00 94 1017.0
20260507223505 12 150 12.9 0.0 0.00 0.00 0.00 94 1017.0
20260507221841 12 160 14.5 0.0 0.00 0.00 0.00 94 1017.0
20260507220344 12 160 14.5 0.0 0.00 0.00 0.00 94 1017.0
20260507214844 12 140 16.1 0.0 0.00 0.00 0.00 94 1017.0
20260507213346 12 140 16.1 0.0 0.00 0.00 0.00 94 1017.0
20260507211845 11 150 12.9 0.0 0.00 0.00 0.00 100 1017.0
20260507210345 11 150 12.9 0.0 0.00 0.00 0.00 100 1017.0
20260507204844 11 150 12.9 0.0 0.00 0.00 0.00 100 1017.0
20260507203345 11 150 12.9 0.0 0.00 0.00 0.00 100 1017.0
20260507200345 11 140 12.9 0.0 0.00 0.00 0.00 94 1017.0
20260507194850 11 140 12.9 0.0 0.00 0.00 0.00 94 1017.0
20260507193344 11 140 12.9 0.0 0.00 0.00 0.00 94 1017.0
20260507190345 11 140 12.9 0.0 0.00 0.00 0.00 94 1017.0
20260507184846 11 140 12.9 0.0 0.00 0.00 0.00 94 1017.0
20260507183344 11 140 12.9 0.0 0.00 0.00 0.00 94 1017.0
20260507181845 11 140 12.9 0.0 0.00 0.00 0.00 94 1017.0
20260507180344 11 140 12.9 0.0 0.00 0.00 0.00 94 1017.0
20260507174844 12 140 16.1 0.0 0.00 0.00 0.00 94 1017.0
20260507173345 12 140 16.1 0.0 0.00 0.00 0.00 94 1017.0
20260507171845 12 140 16.1 0.0 0.00 0.00 0.00 88 1017.0
20260507170344 12 140 16.1 0.0 0.00 0.00 0.00 88 1017.0
20260507164845 12 140 20.9 0.0 0.00 0.00 0.00 82 1017.0
20260507163345 12 140 20.9 0.0 0.00 0.00 0.00 82 1017.0
20260507161844 13 150 22.5 0.0 0.00 0.00 0.00 77 1017.0
20260507160344 13 150 22.5 0.0 0.00 0.00 0.00 77 1017.0
20260507154845 15 150 24.1 0.0 0.00 0.00 0.00 72 1017.0
20260507153345 15 150 24.1 0.0 0.00 0.00 0.00 72 1017.0
20260507151844 16 150 25.7 0.0 0.00 0.00 0.00 68 1017.0
20260507150344 16 150 25.7 0.0 0.00 0.00 0.00 68 1017.0
20260507144844 16 150 27.4 0.0 0.00 0.00 0.00 68 1017.0
20260507143346 16 150 27.4 0.0 0.00 0.00 0.00 68 1017.0
20260507141845 17 150 25.7 0.0 0.00 0.00 0.00 68 1018.0
20260507140344 17 150 25.7 0.0 0.00 0.00 0.00 68 1018.0
20260507134845 17 160 27.4 0.0 0.00 0.00 0.00 68 1017.0
20260507133344 17 160 27.4 0.0 0.00 0.00 0.00 68 1017.0
20260507131841 17 160 27.4 0.0 0.00 0.00 0.00 68 1018.0
20260507130344 17 160 27.4 0.0 0.00 0.00 0.00 68 1018.0
20260507124841 17 160 25.7 0.0 0.00 0.00 0.00 64 1018.0
20260507123422 17 160 25.7 0.0 0.00 0.00 0.00 64 1018.0
20260507121844 17 150 25.7 0.0 0.00 0.00 0.00 64 1018.0
20260507120344 17 150 25.7 0.0 0.00 0.00 0.00 64 1018.0
20260507114844 18 140 24.1 0.0 0.00 0.00 0.00 60 1018.0
20260507113405 18 140 25.7 0.0 0.00 0.00 0.00 64 1018.0
20260507111844 18 140 25.7 0.0 0.00 0.00 0.00 64 1018.0
20260507110344 18 140 25.7 0.0 0.00 0.00 0.00 64 1018.0
20260507104844 17 130 24.1 0.0 0.00 0.00 0.00 68 1018.0
20260507103344 17 130 24.1 0.0 0.00 0.00 0.00 68 1018.0
20260507101844 17 130 25.7 0.0 0.00 0.00 0.00 60 1018.0
20260507100345 17 130 25.7 0.0 0.00 0.00 0.00 60 1018.0
20260507094845 18 150 22.5 0.0 0.00 0.00 0.00 56 1018.0
20260507093345 18 150 22.5 0.0 0.00 0.00 0.00 56 1018.0
20260507091846 17 150 24.1 0.0 0.00 0.00 0.00 56 1018.0
20260507090344 17 150 24.1 0.0 0.00 0.00 0.00 56 1018.0
20260507084844 17 140 20.9 0.0 0.00 0.00 0.00 60 1018.0
20260507083345 17 140 20.9 0.0 0.00 0.00 0.00 60 1018.0
20260507081844 17 160 16.1 0.0 0.00 0.00 0.00 68 1018.0
20260507080345 17 160 16.1 0.0 0.00 0.00 0.00 68 1018.0
20260507074845 16 170 17.7 0.0 0.00 0.00 0.00 72 1018.0
20260507073344 16 170 17.7 0.0 0.00 0.00 0.00 72 1018.0